Location: DeLan Observatory
(46.9670°N, 70.5500°W)
Time: 17:19:51
(UTC-04:00)

N. Korean satellite - Visible Passes

Search period start: 17 October 2019 00:00
Search period end: 27 October 2019 00:00
Orbit: 455 x 508 km, 97.2° (Epoch: 16 October)

Date Brightness Start Highest point End Pass type
(mag) Time Alt. Az. Time Alt. Az. Time Alt. Az.
17 Oct 10.5 19:02:00 10° WSW 19:02:56 11° W 19:03:52 10° WNW visible
18 Oct 7.9 06:22:20 10° NNE 06:25:49 45° E 06:29:19 10° S visible
18 Oct 9.6 18:34:44 10° SW 18:37:24 21° W 18:40:06 10° NW visible
19 Oct 9.4 05:57:28 10° NE 06:00:24 23° E 06:03:22 10° SSE visible
20 Oct 10.3 05:33:20 10° ENE 05:34:55 12° E 05:36:30 10° ESE visible
21 Oct 10.1 18:53:15 10° WSW 18:55:01 13° W 18:56:48 10° WNW visible
22 Oct 8.4 06:14:35 10° NNE 06:17:59 37° E 06:21:24 10° SSE visible
22 Oct 9.1 18:26:36 10° SSW 18:29:30 26° W 18:32:28 10° NW visible
23 Oct 9.7 05:49:50 10° NE 05:52:32 19° E 05:55:16 10° SE visible
24 Oct 10.5 05:26:27 10° E 05:27:01 10° E 05:27:33 10° E visible
25 Oct 7.3 06:31:52 10° NNE 06:35:30 61° E 06:39:08 10° S visible
25 Oct 9.9 18:44:49 10° SW 18:47:05 16° W 18:49:23 10° NW visible
26 Oct 8.8 06:06:49 10° NNE 06:10:06 30° E 06:13:24 10° SSE visible
26 Oct 8.7 18:18:28 10° SSW 18:21:35 32° W 18:24:46 10° NNW visible
